TimeCDT,TemperatureF,Dew PointF,Humidity,Sea Level PressureIn,VisibilityMPH,Wind Direction,Wind SpeedMPH,Gust SpeedMPH,PrecipitationIn,Events,Conditions,WindDirDegrees,DateUTC
12:15 AM,53.6,32.0,44,29.99,10.0,SW,9.2,-,0.00,,Clear,220,2012-09-30 05:15:00
12:55 AM,53.6,32.0,44,29.99,10.0,SW,8.1,-,0.00,,Clear,220,2012-09-30 05:55:00
1:15 AM,53.6,33.8,47,29.98,10.0,SSW,8.1,-,0.00,,Clear,210,2012-09-30 06:15:00
1:35 AM,51.8,32.0,47,29.98,10.0,SW,9.2,-,0.00,,Clear,220,2012-09-30 06:35:00
1:55 AM,51.8,32.0,47,29.98,10.0,SW,9.2,-,0.00,,Clear,220,2012-09-30 06:55:00
2:15 AM,50.0,32.0,50,29.98,10.0,SW,8.1,-,0.00,,Clear,230,2012-09-30 07:15:00
2:35 AM,50.0,32.0,50,29.98,10.0,SW,8.1,-,0.00,,Clear,230,2012-09-30 07:35:00
2:55 AM,50.0,32.0,50,29.98,10.0,SW,9.2,-,0.00,,Clear,230,2012-09-30 07:55:00
3:15 AM,50.0,32.0,50,29.97,10.0,SW,9.2,-,0.00,,Clear,230,2012-09-30 08:15:00
3:35 AM,51.8,33.8,50,29.96,10.0,SW,9.2,-,0.00,,Clear,220,2012-09-30 08:35:00
3:55 AM,48.2,32.0,54,29.96,10.0,SW,9.2,-,0.00,,Clear,220,2012-09-30 08:55:00
4:15 AM,48.2,33.8,58,29.96,10.0,SW,9.2,-,0.00,,Clear,220,2012-09-30 09:15:00
4:35 AM,50.0,33.8,54,29.96,10.0,SW,8.1,-,0.00,,Clear,220,2012-09-30 09:35:00
4:55 AM,48.2,33.8,58,29.96,10.0,SW,9.2,-,0.00,,Clear,230,2012-09-30 09:55:00
5:15 AM,48.2,35.6,62,29.95,10.0,SW,9.2,-,0.00,,Clear,220,2012-09-30 10:15:00
5:35 AM,48.2,33.8,58,29.95,10.0,SW,9.2,-,0.00,,Clear,220,2012-09-30 10:35:00
5:55 AM,50.0,35.6,58,29.94,10.0,SW,10.4,-,0.00,,Clear,220,2012-09-30 10:55:00
6:15 AM,50.0,35.6,58,29.95,10.0,SW,9.2,-,0.00,,Clear,230,2012-09-30 11:15:00
6:35 AM,48.2,35.6,62,29.95,10.0,WSW,10.4,-,0.00,,Clear,240,2012-09-30 11:35:00
6:55 AM,48.2,35.6,62,29.95,10.0,SW,10.4,-,0.00,,Clear,220,2012-09-30 11:55:00
7:15 AM,48.2,35.6,62,29.95,10.0,SW,10.4,-,0.00,,Clear,220,2012-09-30 12:15:00
7:35 AM,50.0,35.6,58,29.95,10.0,SW,11.5,-,0.00,,Clear,220,2012-09-30 12:35:00
7:55 AM,51.8,35.6,54,29.95,10.0,SW,10.4,-,0.00,,Clear,220,2012-09-30 12:55:00
8:15 AM,51.8,35.6,54,29.95,10.0,WSW,10.4,-,0.00,,Clear,240,2012-09-30 13:15:00
8:35 AM,53.6,37.4,54,29.95,10.0,SW,11.5,-,0.00,,Clear,220,2012-09-30 13:35:00
8:55 AM,55.4,37.4,51,29.95,10.0,SW,13.8,-,0.00,,Clear,220,2012-09-30 13:55:00
9:15 AM,59.0,37.4,45,29.95,10.0,SSW,12.7,-,0.00,,Clear,210,2012-09-30 14:15:00
9:35 AM,60.8,37.4,42,29.95,10.0,SW,13.8,-,0.00,,Clear,220,2012-09-30 14:35:00
9:55 AM,62.6,37.4,39,29.94,10.0,SSW,15.0,-,0.00,,Clear,210,2012-09-30 14:55:00
10:15 AM,66.2,39.2,37,29.94,10.0,SSW,13.8,-,0.00,,Clear,210,2012-09-30 15:15:00
10:35 AM,66.2,39.2,37,29.94,10.0,SW,13.8,-,0.00,,Clear,220,2012-09-30 15:35:00
10:55 AM,69.8,41.0,35,29.94,10.0,SSW,12.7,-,0.00,,Clear,210,2012-09-30 15:55:00
11:15 AM,71.6,41.0,33,29.93,10.0,SSW,12.7,-,0.00,,Clear,210,2012-09-30 16:15:00
11:35 AM,73.4,42.8,33,29.93,10.0,SSW,11.5,-,0.00,,Clear,210,2012-09-30 16:35:00
11:55 AM,75.2,44.6,34,29.93,10.0,SSW,10.4,-,0.00,,Clear,210,2012-09-30 16:55:00
12:15 PM,77.0,44.6,32,29.93,10.0,SW,11.5,-,0.00,,Clear,230,2012-09-30 17:15:00
12:35 PM,78.8,44.6,30,29.92,10.0,SW,12.7,18.4,0.00,,Clear,220,2012-09-30 17:35:00
12:55 PM,80.6,46.4,30,29.92,10.0,WSW,15.0,-,0.00,,Clear,240,2012-09-30 17:55:00
1:15 PM,80.6,46.4,30,29.91,10.0,SW,16.1,19.6,0.00,,Clear,230,2012-09-30 18:15:00
1:35 PM,80.6,46.4,30,29.91,10.0,SW,15.0,-,0.00,,Clear,220,2012-09-30 18:35:00
1:55 PM,82.4,46.4,28,29.90,10.0,SW,16.1,-,0.00,,Clear,220,2012-09-30 18:55:00
2:15 PM,82.4,46.4,28,29.89,10.0,SW,17.3,21.9,0.00,,Clear,230,2012-09-30 19:15:00
2:35 PM,82.4,46.4,28,29.88,10.0,WSW,13.8,20.7,0.00,,Clear,240,2012-09-30 19:35:00
2:55 PM,82.4,48.2,30,29.88,10.0,WSW,15.0,18.4,0.00,,Clear,240,2012-09-30 19:55:00
3:15 PM,82.4,46.4,28,29.88,10.0,West,15.0,-,0.00,,Partly Cloudy,260,2012-09-30 20:15:00
3:35 PM,84.2,48.2,29,29.88,10.0,WSW,12.7,-,0.00,,Clear,250,2012-09-30 20:35:00
3:55 PM,84.2,48.2,29,29.87,10.0,West,12.7,19.6,0.00,,Clear,260,2012-09-30 20:55:00
4:15 PM,84.2,44.6,25,29.87,10.0,West,10.4,-,0.00,,Clear,270,2012-09-30 21:15:00
4:35 PM,84.2,44.6,25,29.87,10.0,WSW,10.4,-,0.00,,Clear,250,2012-09-30 21:35:00
4:55 PM,84.2,42.8,23,29.87,10.0,West,9.2,-,0.00,,Clear,280,2012-09-30 21:55:00
5:15 PM,84.2,42.8,23,29.87,10.0,NW,9.2,-,0.00,,Clear,310,2012-09-30 22:15:00
5:35 PM,82.4,42.8,25,29.87,10.0,WNW,10.4,-,0.00,,Clear,300,2012-09-30 22:35:00
5:55 PM,80.6,44.6,28,29.87,10.0,NW,16.1,-,0.00,,Partly Cloudy,320,2012-09-30 22:55:00
6:15 PM,78.8,44.6,30,29.88,10.0,NW,15.0,21.9,0.00,,Partly Cloudy,320,2012-09-30 23:15:00
6:35 PM,78.8,44.6,30,29.88,10.0,NW,16.1,-,0.00,,Clear,320,2012-09-30 23:35:00
6:55 PM,77.0,44.6,32,29.89,10.0,NW,13.8,-,0.00,,Partly Cloudy,310,2012-09-30 23:55:00
7:15 PM,75.2,44.6,34,29.90,10.0,NW,11.5,-,0.00,,Partly Cloudy,310,2012-10-01 00:15:00
7:35 PM,73.4,44.6,36,29.90,10.0,NW,9.2,-,0.00,,Clear,320,2012-10-01 00:35:00
7:55 PM,71.6,44.6,38,29.91,10.0,NW,9.2,-,0.00,,Clear,320,2012-10-01 00:55:00
8:15 PM,71.6,44.6,38,29.91,10.0,NNW,9.2,-,0.00,,Scattered Clouds,330,2012-10-01 01:15:00
8:35 PM,71.6,44.6,38,29.92,10.0,NW,13.8,-,0.00,,Partly Cloudy,320,2012-10-01 01:35:00
8:55 PM,71.6,44.6,38,29.92,10.0,NNW,12.7,-,0.00,,Clear,330,2012-10-01 01:55:00
9:15 PM,71.6,44.6,38,29.92,10.0,NW,13.8,-,0.00,,Clear,320,2012-10-01 02:15:00
9:35 PM,69.8,44.6,40,29.93,10.0,NNW,15.0,-,0.00,,Clear,330,2012-10-01 02:35:00
9:55 PM,69.8,44.6,40,29.94,10.0,NNW,15.0,-,0.00,,Clear,330,2012-10-01 02:55:00
10:15 PM,69.8,44.6,40,29.95,10.0,NNW,12.7,-,0.00,,Clear,330,2012-10-01 03:15:00
10:35 PM,68.0,44.6,43,29.96,10.0,NW,13.8,-,0.00,,Partly Cloudy,320,2012-10-01 03:35:00
10:55 PM,68.0,44.6,43,29.97,10.0,NNW,12.7,-,0.00,,Scattered Clouds,330,2012-10-01 03:55:00
11:35 PM,66.2,44.6,46,29.98,10.0,NNW,12.7,-,0.00,,Clear,330,2012-10-01 04:35:00
11:55 PM,64.4,42.8,45,29.98,10.0,NNW,15.0,-,0.00,,Clear,330,2012-10-01 04:55:00